Time,TemperatureF,DewpointF,PressureIn,WindDirection,WindDirectionDegrees,WindSpeedMPH,WindSpeedGustMPH,Humidity,HourlyPrecipIn,Conditions,Clouds,dailyrainin,SoftwareType,DateUTC
2014-04-20 00:00:00,42.6,34.9,30.30,NE,53,0.0,2.0,74,0.00,,,0.00,Wunderground v.1.15,2014-04-20 04:00:00,
2014-04-20 00:05:00,42.4,34.7,30.30,NE,53,1.0,2.0,74,0.00,,,0.00,Wunderground v.1.15,2014-04-20 04:05:00,
2014-04-20 00:10:00,42.3,34.6,30.30,NE,53,1.0,1.0,74,0.00,,,0.00,Wunderground v.1.15,2014-04-20 04:10:00,
2014-04-20 00:20:00,41.7,34.7,30.30,NE,53,0.0,0.0,76,0.00,,,0.00,Wunderground v.1.15,2014-04-20 04:20:00,
2014-04-20 00:25:00,41.4,34.4,30.30,NE,53,0.0,0.0,76,0.00,,,0.00,Wunderground v.1.15,2014-04-20 04:25:00,
2014-04-20 00:30:00,41.3,34.3,30.30,NE,53,0.0,0.0,76,0.00,,,0.00,Wunderground v.1.15,2014-04-20 04:30:00,
2014-04-20 00:35:00,41.2,34.2,30.30,NE,53,0.0,0.0,76,0.00,,,0.00,Wunderground v.1.15,2014-04-20 04:35:00,
2014-04-20 00:40:00,41.2,34.5,30.31,NE,53,0.0,0.0,77,0.00,,,0.00,Wunderground v.1.15,2014-04-20 04:40:00,
2014-04-20 00:50:00,41.0,34.3,30.31,NE,53,0.0,0.0,77,0.00,,,0.00,Wunderground v.1.15,2014-04-20 04:50:00,
2014-04-20 00:55:00,40.9,34.2,30.31,NE,53,0.0,0.0,77,0.00,,,0.00,Wunderground v.1.15,2014-04-20 04:55:00,
2014-04-20 01:00:00,40.8,34.1,30.31,NE,53,0.0,0.0,77,0.00,,,0.00,Wunderground v.1.15,2014-04-20 05:00:00,
2014-04-20 01:05:00,41.0,34.3,30.31,NE,53,0.0,0.0,77,0.00,,,0.00,Wunderground v.1.15,2014-04-20 05:05:00,
2014-04-20 01:15:00,41.0,33.7,30.31,NE,53,0.0,1.0,75,0.00,,,0.00,Wunderground v.1.15,2014-04-20 05:15:00,
2014-04-20 01:20:00,40.9,33.6,30.31,NE,53,0.0,0.0,75,0.00,,,0.00,Wunderground v.1.15,2014-04-20 05:20:00,
2014-04-20 01:30:00,40.8,33.5,30.31,NE,53,0.0,0.0,75,0.00,,,0.00,Wunderground v.1.15,2014-04-20 05:30:00,
2014-04-20 01:35:00,40.8,33.5,30.31,NE,53,0.0,0.0,75,0.00,,,0.00,Wunderground v.1.15,2014-04-20 05:35:00,
2014-04-20 01:40:00,40.5,33.2,30.31,NE,53,0.0,0.0,75,0.00,,,0.00,Wunderground v.1.15,2014-04-20 05:40:00,
2014-04-20 01:45:00,40.3,33.0,30.31,NE,53,0.0,3.0,75,0.00,,,0.00,Wunderground v.1.15,2014-04-20 05:45:00,
2014-04-20 01:50:00,40.2,32.9,30.31,NE,53,1.0,1.0,75,0.00,,,0.00,Wunderground v.1.15,2014-04-20 05:50:00,
2014-04-20 02:00:00,39.9,32.9,30.31,NE,53,1.0,1.0,76,0.00,,,0.00,Wunderground v.1.15,2014-04-20 06:00:00,
2014-04-20 02:05:00,40.0,32.7,30.31,NE,53,1.0,2.0,75,0.00,,,0.00,Wunderground v.1.15,2014-04-20 06:05:00,